Weather in Boyarinovo

Russia / Pskov Oblast     56°08′08″N   28°52′36″E
temp.,
°C
wind,
m/s
gust,
m/s
humid.,
%
clouds,
%
prec.,
mm/h
press.,
hPa
HPBL,
m
4 march, thu
thu400:00+1wsw5128622 0.0 1011766
03:00+1w4108761 0.0 1008654
06:00+1w4989100 0.0 1005610
09:000w4897100 0.8 1004518
12:000nw3697100 1.1 1004364
15:00+1nnw4866100 2.2 10041100
18:00−1nnw387554 0.1 1005449
21:00−4nnw3108644 0.1 1007439
5 march, fri
fri500:00−5nnw388624 0.0 1008441
03:00−6nw258811 0.0 1010204
06:00−6w22870 0.0 101077
09:00−4wsw367714 0.0 1010463
12:00−1wnw4667100 0.9 10111031
15:00−3nw71176100 1.5 10121105
18:00−4nnw5859100 0.1 10141372
21:00−6nnw397372 0.1 1016620
6 march, sat
sat600:00−6nnw387954 0.0 1018521
03:00−7nw378842 0.0 1020414
06:00−8nw278922 0.0 1020329
09:00−6nw378453 0.0 1022542
12:00−3wnw465719 0.0 10211091
15:00−1wsw584410 0.0 10191472
18:00−2wsw5125886 0.0 10151379
21:00−1wsw6156393 0.0 10121427
7 march, sun
sun700:00−1wsw71664100 0.0 10081396
03:00−1wsw71583100 0.1 10031194
06:000w81595100 1.5 9991192
09:00−4nw71463100 2.9 10011704
12:00−2wnw7144133 0.0 10032679
15:00−2w7135567 0.4 10021977
18:00−2w6155533 0.0 10002013
21:00−4wnw7147057 0.1 10011353
8 march, mon
mon800:00−5nw61174100 0.4 10031313
03:00−7nnw5977100 0.5 10061167
06:00−8nnw497694 0.1 10081131
09:00−8nw598097 0.1 10111149
12:00−7nnw6867100 0.2 10131210
15:00−6nnw6964100 0.3 10141238
18:00−7nnw5965100 0.1 10161223
21:00−9nnw497888 0.1 1019825